Flag for India Weather past 2 weeks in Fatehpur, Uttar Pradesh, India

Now
90 °F

Broken clouds.


Feels Like: 108 °F
Forecast: 80 / 92 °F
Wind: 14 mph from East

Location: Lucknow / Amausi

Current Time: Jul 22, 2014 at 5:00:45 PM

Latest Report: Jul 22, 2014 at 3:00 PM


Visibility: 3 mi

Pressure: 29.39 "Hg

Humidity: 75%

Dew point: 81 °F

Location of FatehpurLocation

Historic Weather in Fatehpur — Graph

°F

Fatehpur temperature yesterday

Maximum temperature yesterday: 102 °F (at 12:30 PM)
Minimum temperature yesterday: 77 °F (at 6:00 PM)
Average temperature yesterday: 87 °F

Past Weeks' High & Low Weather Summary

 TemperatureHumidityPressure
High104 °F (Jul 9, 1:30 PM)100% (Jul 8, 2:00 AM)29.53 "Hg (Jul 8, 2:00 AM)
Low77 °F (Jul 18, 11:30 AM)51% (Jul 9, 1:30 PM)28.29 "Hg (Jul 14, 5:30 PM)
Average88 °F82%29.44 "Hg
* Reported Jul 7 2:30 PM — Jul 22 3:00 PM, Fatehpur, Weather by CustomWeather, © 2014

Note: Actual official high and low records may vary slightly from our data, if they occured in-between our weather recording intervals... More about our weather records

Advertising

Fatehpur weather history for previous 24 hours

 ConditionsComfort  
Time TempWeatherWind HumidityBarometerVisibility
3:00 PM
Jul 22
90 °FBroken clouds.14 mph75%29.39 "Hg3 mi
2:30 PM91 °FBroken clouds.16 mph71%29.42 "Hg3 mi
1:30 PM90 °FScattered clouds.16 mph75%29.45 "Hg3 mi
1:00 PM90 °FBroken clouds.9 mph75%29.45 "Hg3 mi
12:30 PM90 °FBroken clouds.17 mph75%29.45 "Hg3 mi
12:00 PM90 °FBroken clouds.16 mph75%29.47 "Hg3 mi
11:30 AM90 °FBroken clouds.16 mph75%29.47 "Hg3 mi
11:00 AM90 °FBroken clouds.14 mph75%29.47 "Hg3 mi
10:30 AM90 °FBroken clouds.14 mph75%29.47 "Hg3 mi
9:30 AM88 °FBroken clouds.9 mph79%29.47 "Hg3 mi
9:00 AM88 °FBroken clouds.7 mph79%29.47 "Hg3 mi
8:00 AM88 °FBroken clouds.8 mph79%29.45 "Hg3 mi
7:30 AM86 °FBroken clouds.9 mph84%29.45 "Hg2 mi
7:00 AMN/ABroken clouds.3 mphN/A29.45 "Hg2 mi
6:30 AMN/ABroken clouds.2 mphN/A29.45 "Hg2 mi
6:00 AMN/APartly sunny.2 mphN/A29.42 "Hg2 mi
5:30 AM82 °FPartly cloudy.No wind89%29.42 "Hg2 mi
5:00 AM82 °FPartly cloudy.No wind94%29.42 "Hg2 mi
4:00 AM82 °FPartly cloudy.No wind94%29.42 "Hg2 mi
3:00 AM82 °FPartly cloudy.No wind94%29.42 "Hg2 mi
2:00 AM82 °FPartly cloudy.No wind94%29.42 "Hg2 mi
1:00 AM82 °FPartly cloudy.No wind94%29.42 "Hg2 mi
12:00 AM81 °FPartly cloudy.No wind100%29.45 "Hg2 mi
11:00 PM
Jul 21
81 °FPartly cloudy.No wind94%29.47 "Hg2 mi
10:00 PM81 °FPassing clouds.No wind94%29.45 "Hg2 mi
9:00 PM81 °FPartly cloudy.No wind94%29.45 "Hg2 mi
8:00 PM81 °FOvercast.No wind94%29.42 "Hg1 mi
7:30 PM79 °FOvercast.No wind100%29.42 "Hg1 mi
7:00 PM79 °FCloudy.5 mph100%29.42 "Hg1 mi
6:30 PM79 °FMore clouds than sun.No wind100%29.39 "Hg1 mi
6:00 PM77 °FThunderstorms. Cloudy.6 mph100%29.36 "Hg1 mi
Weather by CustomWeather, © 2014

See weather overviewHow to use our weather pages